Weather History for Nassau, Bahamas

Change the Weather History Date:

Monday, January 28, 2013

  Actual Average Record
Temperature  
Mean Temperature 74 °F -  
Max Temperature 79 °F 78 °F 84 °F (2012)
Min Temperature 69 °F 62 °F 50 °F (2000)
Cooling Degree Days 9    
Growing Degree Days 24 (Base 50)    
Moisture  
Dew Point 65 °F    
Average Humidity 73    
Maximum Humidity 94    
Minimum Humidity 54    
Precipitation  
Precipitation 0.00 in 0.05 in - ()
Sea Level Pressure  
Sea Level Pressure 30.27 in    
Wind  
Wind Speed 6 mph ()    
Max Wind Speed 12 mph    
Max Gust Speed -    
Visibility 7.0 miles    
Events      
Averages and records for this station are not official NWS values.
T = Trace of Precipitation, MM = Missing Value Source: Averaged Metar Reports

Daily Weather History Graph

Daily Weather History Graph

Search for Another Location

Airport:

Trip Planner

Search our weather history database for the weather conditions in past years. The results will help you decide how hot, cold, wet, or windy it might be!

Date:

Astronomy

Jan. 28, 2013 Rise Set
Actual Time 6:54 AM EST 5:52 PM EST
Civil Twilight 6:29 AM EST 6:16 PM EST
Nautical Twilight 6:02 AM EST 6:43 PM EST
Astronomical Twilight 5:35 AM EST 7:10 PM EST
Moon 7:27 PM EST (1/28) 7:33 AM EST (1/28)
Length of Visible Light 11h 46m
Length of Day
10h 58m
Full, 98% of the Moon is Illuminated
Jan 28
Full
Feb 3
Last Quarter
Feb 10
New
Feb 17
First Quarter
Feb 25
Full

Hourly Weather History & Observations

Time (EST) Temp. Dew Point Humidity Pressure Visibility Wind Dir Wind Speed Gust Speed Precip Events Conditions
12:00 AM 71.6 °F 62.6 °F 73% 30.27 in 6.2 mi East 3.5 mph - N/A   Partly Cloudy
1:00 AM 71 °F 65 °F 74% 30.27 in 9 mi East 3.5 mph - -   Scattered Clouds
1:00 AM 71.6 °F 62.6 °F 73% 30.26 in 6.2 mi NE 6.9 mph - N/A   Partly Cloudy
5:00 AM 69.8 °F 62.6 °F 78% 30.24 in 6.2 mi ENE 5.8 mph - N/A   Partly Cloudy
6:00 AM 69.8 °F 62.6 °F 78% 30.26 in 6.2 mi East 3.5 mph - N/A   Partly Cloudy
7:00 AM 71 °F 63 °F 70% 30.27 in 9 mi ENE 3.5 mph - -   Scattered Clouds
7:00 AM 69.8 °F 62.6 °F 78% 30.27 in 6.2 mi ENE 3.5 mph - N/A   Partly Cloudy
8:00 AM 71.6 °F 62.6 °F 73% 30.28 in - East 4.6 mph - N/A   Clear
9:00 AM 73.4 °F 62.6 °F 69% 30.30 in - NE 11.5 mph - N/A   Clear
10:00 AM 77 °F 63 °F 54% 30.32 in 9 mi East 11.5 mph - -   Scattered Clouds
10:00 AM 77.0 °F 62.6 °F 61% 30.31 in 6.2 mi East 11.5 mph - N/A   Partly Cloudy
12:00 PM 77.0 °F 64.4 °F 65% 30.30 in 6.2 mi East 11.5 mph - N/A   Scattered Clouds
1:00 PM 78 °F 65 °F 57% 30.27 in 9 mi East 11.5 mph - -   Partly Cloudy
1:00 PM 78.8 °F 66.2 °F 65% 30.27 in 6.2 mi East 11.5 mph - N/A   Scattered Clouds
2:00 PM 75.2 °F 64.4 °F 69% 30.26 in 6.2 mi East 9.2 mph - N/A   Scattered Clouds
3:00 PM 75.2 °F 66.2 °F 73% 30.24 in 6.2 mi NE 11.5 mph - N/A   Scattered Clouds
4:00 PM 77 °F 66 °F 62% 30.24 in 8 mi East 9.2 mph - -   Partly Cloudy
4:00 PM 77.0 °F 66.2 °F 69% 30.24 in 6.2 mi East 9.2 mph - N/A   Scattered Clouds
5:00 PM 75.2 °F 66.2 °F 73% 30.24 in 6.2 mi NE 9.2 mph - N/A   Partly Cloudy
7:00 PM 73 °F 68 °F 78% 30.26 in 8 mi NE 4.6 mph - -   Partly Cloudy
7:00 PM 73.4 °F 68.0 °F 83% 30.26 in 6.2 mi NE 4.6 mph - N/A   Scattered Clouds
8:00 PM 73.4 °F 66.2 °F 78% 30.27 in - NE 4.6 mph - N/A   Clear
9:00 PM 71.6 °F 66.2 °F 83% 30.27 in - NE 4.6 mph - N/A   Clear
10:00 PM 72 °F 69 °F 88% 30.27 in 8 mi ENE 3.5 mph - -   Scattered Clouds
10:00 PM 71.6 °F 69.8 °F 94% 30.26 in 6.2 mi ENE 3.5 mph - N/A   Partly Cloudy
11:00 PM 73.4 °F 68.0 °F 83% 30.27 in 6.2 mi ENE 3.5 mph - N/A   Partly Cloudy